SCP
0 0 0 0 0 0 0 0 0 0 0 0 0 0 0 0 0 0 0 0 0 0 0 0 0 0 0 0 0 0 0 0 0 0 0 0 0 0 0 0 0 0 0 0
0 0 0 0 0 0 0 0 0 0 0 0 0 0 0 0 0 0 0 0 0 0 0 0 0 0 0 0 0 0 0 0 0 0 0 0 0 0 0 0 0 0 0 0
0 0 0 0 0 0 0 0 0 0 0 0 0 0 0 0 0 0 0 0 0 0 0 0 0 0 0 0 0 0 0 0 0 0 0 0 0 0 0 0 0 0 0 0
0 0 0 0 0 0 0 0 0 0 0 0 0 0 0 0 0 0 0 0 0 0 0 0 0 0 0 0 0 0 0 0 0 0 0 0 0 0 0 0 0 0 0 0
0 0 0 0 0 0 0 0 0 0 0 0 0 0 0 0 0 0 0 0 0 0 0 0 0 0 0 0 0 0 0 0 0 0 0 0 0 0 0 0 0 0 0 0
0 0 0 0 0 0 0 0 0 0 0 0 0 0 0 0 0 0 0 0 0 0 0 0 0 0 0 0 0 0 0 0 0 0 0 0 0 0 0 0 0 0 0 0
0 0 0 0 0 0 0 0 0 0 0 0 0 0 0 0 0 0 0 0 0 0 0 0 0 0 0 0 0 0 0 0 0 0 0 0 0 0 0 0 0 0 0 0
0 0 0 0 0 0 0 0 0 0 0 0 0 0 0 0 0 0 0 0 0 0 0 0 0 0 0 0 0 0 0 0 0 0 0 0 0 0 0 0 0 0 0 0
0 0 0 0 0 0 0 0 0 0 0 0 0 0 0 0 0 0 0 0 0 0 0 0 0 0 0 0 0 0 0 0 0 0 0 0 0 0 0 0 0 0 0 0
0 0 0 0 0 0 0 0 0 0 0 0 0 0 0 0 0 0 0 0 0 0 0 0 0 0 0 0 0 0 0 0 0 0 0 0 0 0 0 0 0 0 0 0
0 0 0 0 0 0 0 0 0 0 0 0 0 0 0 0 0 0 0 0 0 0 0 0 0 0 0 0 0 0 0 0 0 0 0 0 0 0 0 0 0 0 0 0
0 0 0 0 0 0 0 0 0 0 0 0 0 0 0 0 0 0 0 0 0 0 0 0 0 0 0 0 0 0 0 0 0 0 0 0 0 0 0 0 0 0 0 0
0 0 0 0 0 0 0 0 0 0 0 0 0 0 0 0 0 0 0 0 0 0 0 0 0 0 0 0 0 0 0 0 0 0 0 0 0 0 0 0 0 0 0 0
0 0 0 0 0 0 0 0 0 0 0 0 0 0 0 0 0 0 0 0 0 0 0 0 0 0 0 0 0 0 0 0 0 0 0 0 0 0 0 0 0 0 0 0
0 0 0 0 0 0 0 0 0 0 0 0 0 0 0 0 0 0 0 0 0 0 0 0 0 0 0 0 0 0 0 0 0 0 0 0 0 0 0 0 0 0 0 0
0 0 0 0 0 0 0 0 0 0 0 0 0 0 0 0 0 0 0 0 0 0 0 0 0 0 0 0 0 0 0 0 0 0 0 0 0 0 0 0 0 0 0 0
0 0 0 0 0 0 0 0 0 0 0 0 0 0 0 0 0 0 0 0 0 0 0 0 0 0 0 0 0 0 0 0 0 0 0 0 0 0 0 0 0 0 0 0
0 0 0 0 0 0 0 0 0 0 0 0 0 0 0 0 0 0 0 0 0 0 0 0 0 0 0 0 0 0 0 0 0 0 0 0 0 0 0 0 0 0 0 0
0 0 0 0 0 0 0 0 0 0 0 0 0 0 0 0 0 0 0 0 0 0 0 0 0 0 0 0 0 0 0 0 0 0 0 0 0 0 0 0 0 0 0 0
0 0 -0 0 0 0 0 0 0 0 0 0 0 0 0 0 0 0 0 0 0 0 0 0 0 0 0 0 0 0 0 0 0 0 0 0 0 0 0 0 0 0 0 0
-0 -0 -0 0 0 0 0 0 0 0 0 0 0 0 0 0 0 0 0 0 0 0 0 0 0 0 0 0 0 0 0 0 0 0 0 0 0 0 0 0 0 0 0 0
-0 -0 -0 0 0 0 0 0 0 0 0 0 0 0 0 0 0 0 0 0 0 0 0 0 0 0 0 0 0 0 0 0 0 0 0 0 0 0 0 0 0 0 0 0
-0 -0 0 0 0 0 0 0 0 0 0 0 0 0 0 0 0 0 0 0 0 0 0 0 0 0 0 0 0 0 0 0 0 0 0 0 0 0 0 0 0 0 0 0
0 0 0 0 0 0 0 0 0 0 0 0 0 0 0 0 0 0 0 0 0 0 0 0 0 0 0 0 0 0 0 0 0 0 0 0 0 0 0 0 0 0 0 0
0 0 0 0 0 0 0 0 0 0 0 0 0 0 0 0 0 0 0 0 0 0 0 0 0 0 0 0 0 0 0 0 0 0 0 0 0 0 0 0 0 0 0 0
0 0 0 0 -0 -0 0 0 0 0 0 0 0 0 0 0 0 0 0 0 0 0 0 0 0 0 0 0 0 0 0 0 0 0 0 0 0 0 0 0 0 0 0 0
0 0 0 0 0 0 0 0 0 0 0 0 0 0 0 0 0 0 0 0 0 0 0 0 0 0 0 0 0 0 0 0 0 0 0 0 0 0 0 0 0 0 0 0
Wind_Speed
7 6 6 8 8 8 10 10 11 10 10 9 6 5 4 3 2 2 2 2 2 2 2 2 3 4 4 4 4 4 4 4 4 3 3 3 2 2 2 2 3 3 3 3
7 5 7 10 10 10 11 11 12 12 11 6 5 5 4 3 3 3 3 4 3 3 3 3 4 4 4 5 4 4 4 4 3 4 3 3 3 3 2 2 3 2 2 3
6 4 7 10 8 9 9 9 10 10 7 3 5 5 5 4 4 4 4 4 4 4 4 4 5 4 5 5 5 5 5 4 4 4 4 4 3 3 3 3 3 3 3 3
5 5 9 1 1 3 6 6 6 5 5 5 6 6 6 5 4 4 3 4 4 4 4 4 4 4 4 5 5 5 5 4 4 4 4 4 3 3 3 3 3 3 3 3
5 7 8 4 2 3 5 5 2 4 4 4 5 5 3 2 4 5 4 4 4 4 4 3 3 3 4 5 5 6 5 5 5 5 4 4 4 4 3 3 3 3 3 3
7 7 7 1 2 1 5 5 1 2 3 3 5 6 3 4 6 6 5 4 3 3 3 3 3 3 4 5 5 6 5 5 5 5 5 5 5 4 3 3 3 3 3 3
10 9 6 2 2 3 6 1 2 2 3 4 5 6 6 7 6 5 4 3 3 3 2 2 3 4 4 4 5 5 5 5 5 5 5 5 4 4 4 3 3 3 3 3
7 9 5 4 3 3 3 4 1 3 4 5 6 6 6 6 5 4 3 3 2 2 1 1 3 4 4 4 4 4 4 5 5 5 4 4 4 3 4 3 4 4 3 2
5 3 3 1 1 2 4 4 4 4 5 6 6 6 7 6 5 4 4 3 2 2 1 1 2 3 4 3 3 4 4 4 5 5 4 4 4 4 4 4 3 3 3 3
6 5 4 4 4 4 5 5 5 5 5 5 6 6 6 6 5 4 3 3 3 2 2 2 2 3 4 3 3 5 5 5 5 5 4 4 4 4 4 4 4 4 4 3
8 6 5 6 6 6 5 6 6 5 5 6 6 6 6 6 5 4 4 3 3 3 3 3 3 3 3 3 4 5 5 5 5 4 4 4 4 4 5 5 4 5 4 4
7 6 6 6 6 6 7 7 6 6 6 6 6 6 6 6 5 5 5 4 4 4 4 4 3 3 3 4 5 5 5 5 4 4 4 4 4 3 2 4 4 5 4 4
8 7 7 7 7 7 7 7 7 6 6 6 6 5 6 6 5 5 5 5 5 4 4 4 3 4 3 4 5 5 5 5 4 4 4 4 4 4 3 3 3 5 5 5
7 6 8 7 7 6 7 7 6 6 6 5 5 5 5 5 5 5 5 5 5 4 4 4 4 4 3 4 5 6 5 5 4 4 4 4 5 5 4 4 4 4 5 6
8 9 8 7 6 6 6 5 6 6 5 5 5 5 5 6 6 5 5 5 5 4 4 4 4 4 3 4 5 5 5 4 4 4 4 4 4 4 4 5 4 4 3 4
7 7 7 7 6 6 6 6 6 6 6 5 5 5 5 5 5 5 4 4 4 5 4 4 4 3 3 4 4 4 3 3 4 4 4 4 4 5 5 5 5 4 4 4
7 7 6 6 6 7 6 6 6 6 5 5 5 5 5 4 4 5 4 4 4 5 4 4 4 3 3 4 4 3 3 3 5 5 4 4 5 5 5 5 4 4 4 4
7 7 7 7 6 6 6 6 6 6 5 5 5 4 4 4 5 5 5 5 5 4 4 4 4 3 3 4 3 3 3 3 4 4 4 4 4 4 5 5 5 5 4 4
6 6 6 6 6 6 6 6 6 5 5 4 5 5 5 5 5 5 5 5 5 5 5 4 4 4 3 3 3 3 4 3 3 3 4 4 4 4 4 4 5 5 4 4
4 4 4 5 5 5 5 5 5 5 5 5 5 5 4 4 4 5 5 5 4 4 5 4 4 4 4 3 3 3 3 3 3 3 3 4 4 4 4 4 5 5 5 5
3 3 4 4 4 5 4 5 5 5 5 5 5 5 5 5 5 5 5 5 5 4 4 4 4 3 3 2 2 3 3 3 3 3 3 4 4 4 4 5 5 5 5 5
3 3 4 4 4 4 4 4 4 5 5 5 5 5 5 5 5 5 5 4 4 4 3 3 3 3 4 3 3 3 3 3 3 3 3 4 4 4 5 5 5 4 4 5
2 3 3 4 4 4 4 4 5 5 5 5 5 5 5 5 4 4 4 4 3 4 3 3 3 4 4 3 3 3 3 3 3 3 3 3 4 4 4 5 4 4 4 4
3 3 4 4 4 4 4 4 5 4 5 5 4 5 5 4 4 4 4 3 3 4 3 3 3 4 4 3 3 3 3 3 3 3 3 2 3 3 3 3 3 3 4 5
4 4 4 4 4 4 4 4 4 4 4 4 4 4 4 3 4 4 4 3 3 3 3 3 3 4 3 3 3 3 3 2 3 3 3 3 3 3 3 3 3 3 3 4
4 4 4 4 4 4 3 3 3 3 3 3 3 3 3 3 4 3 3 3 4 4 3 3 3 3 3 3 3 3 3 2 2 3 3 3 3 3 3 3 4 3 3 3
4 4 3 4 3 3 3 3 3 3 3 3 4 3 3 3 3 3 4 3 3 3 3 3 2 2 2 2 3 3 2 2 3 3 3 3 3 3 3 3 3 3 3 3
Wind_Direction
270 276 261 259 255 242 244 259 269 279 282 287 292 299 304 305 299 285 267 254 245 236 237 226 211 210 208 201 201 198 197 205 207 207 204 207 203 208 208 213 212 212 208 208
252 244 253 259 255 248 248 255 261 269 275 288 298 295 298 300 290 269 259 256 253 250 246 242 228 218 209 203 201 202 204 205 198 207 200 208 209 203 204 220 218 199 204 195
255 247 260 251 245 241 243 246 251 263 279 300 294 301 302 301 290 283 273 267 261 259 254 251 243 227 216 209 199 203 209 206 197 202 202 208 206 199 206 210 204 197 200 196
263 255 248 266 104 242 251 260 262 271 286 284 289 296 288 290 291 286 277 272 270 270 268 259 246 232 216 205 201 204 204 204 204 205 204 205 203 205 210 202 199 208 201 203
246 256 264 241 204 227 245 255 255 267 285 309 313 284 260 338 323 306 293 283 279 277 267 260 241 225 212 203 202 204 204 207 207 208 206 204 206 213 211 199 195 205 203 202
234 249 256 196 104 293 254 236 103 299 313 320 305 287 312 345 321 307 298 285 281 278 267 252 233 214 210 206 207 211 209 211 210 210 210 211 213 217 206 198 201 204 203 211
237 245 258 58 108 214 238 353 61 295 303 297 293 316 326 315 308 301 300 296 292 279 267 245 215 208 215 215 216 215 209 210 211 210 213 213 212 211 204 198 199 205 207 215
227 236 241 112 170 228 342 17 310 297 301 298 301 312 314 309 310 309 311 305 295 280 266 217 204 209 216 223 222 210 204 205 208 209 205 204 205 206 204 200 203 204 203 211
238 258 25 164 237 343 338 314 311 301 301 296 296 304 310 309 311 311 311 307 289 271 257 211 205 219 225 219 214 206 204 206 208 205 201 201 197 195 199 202 210 214 209 216
249 250 252 248 263 284 305 306 308 301 295 289 292 301 307 308 307 308 306 304 291 270 250 235 218 219 232 226 213 210 211 209 208 206 200 198 198 200 206 207 210 216 216 222
250 261 264 251 261 277 295 299 297 293 288 289 293 297 301 302 301 296 294 293 285 273 266 252 233 229 231 227 218 217 216 212 211 207 202 203 205 210 218 220 224 226 225 222
256 261 264 274 281 286 287 289 291 289 289 291 292 293 296 298 299 293 289 288 282 270 259 252 238 234 228 228 225 223 220 215 213 208 204 207 206 210 223 243 236 238 252 252
266 274 275 281 281 282 282 287 287 283 283 289 291 291 292 294 295 291 287 282 281 279 265 254 246 244 235 227 229 232 229 219 215 216 212 213 214 218 221 217 223 232 233 241
252 257 262 265 271 277 282 286 285 284 284 285 290 291 292 292 291 288 284 284 284 282 272 263 257 256 248 234 231 233 235 226 221 222 221 221 220 223 225 225 222 224 220 221
246 252 258 266 268 271 278 282 284 288 291 292 294 294 295 293 289 290 291 289 281 273 269 267 263 265 258 243 235 232 233 229 223 225 226 228 227 227 227 229 230 228 217 203
249 251 250 253 258 266 271 274 277 283 287 291 293 292 294 296 293 291 292 290 281 276 274 269 266 271 260 243 238 235 233 233 235 229 224 225 226 225 226 228 229 229 227 219
238 242 245 250 257 263 265 267 270 275 278 279 283 292 296 296 295 296 300 296 288 282 275 271 275 277 258 247 241 239 234 217 215 226 228 227 228 229 227 228 231 232 235 226
240 248 252 253 256 262 267 266 265 268 269 272 281 286 287 288 291 297 301 299 295 295 295 289 285 277 252 248 244 240 236 228 219 220 224 229 234 233 231 231 231 235 238 220
247 254 261 262 265 265 267 267 266 266 268 270 274 274 277 283 291 298 302 301 298 295 299 299 297 273 258 248 255 245 242 238 233 225 223 224 231 235 235 236 236 234 233 229
252 259 264 267 269 267 266 267 266 264 268 271 269 271 277 286 291 291 292 289 287 292 297 304 291 277 269 255 252 252 247 242 240 236 231 230 232 235 237 238 239 238 235 233
248 256 262 264 268 271 265 261 262 267 267 263 259 260 267 276 281 284 288 289 294 302 301 302 289 288 286 286 249 256 248 242 241 241 236 236 239 241 241 240 239 237 237 237
256 260 265 271 274 277 277 274 273 274 272 269 266 264 266 269 273 278 277 282 293 306 296 288 291 313 319 304 264 260 254 245 240 239 238 238 239 242 243 243 243 241 241 241
271 273 272 276 277 282 285 282 280 275 270 269 269 268 267 270 270 271 277 283 286 300 290 287 316 326 315 284 268 264 258 253 250 247 243 243 242 243 245 246 246 246 245 244
270 274 277 278 276 275 278 286 287 281 277 273 273 275 274 273 272 271 278 282 290 289 285 301 314 312 293 277 274 274 267 258 254 253 252 255 255 252 251 250 250 250 251 252
265 269 272 274 272 274 282 291 292 290 287 285 287 285 279 274 276 281 281 283 296 287 282 292 298 295 283 283 283 282 277 273 269 264 257 254 256 254 252 252 252 252 254 254
267 269 268 269 273 276 275 274 277 282 286 288 292 294 291 287 284 282 283 285 286 286 285 285 283 280 280 284 284 285 282 278 274 267 264 261 259 259 256 254 254 255 258 261
268 269 267 264 263 263 265 265 266 271 276 279 286 289 289 288 286 286 285 283 281 279 281 283 282 279 283 285 283 282 282 282 278 274 268 263 260 261 261 260 261 261 261 261